Tracking 18628 objects as of 24-April-2017
HD Live streaming from Space Station
objects crossing your sky now

COSMOS 2251 DEB

Track COSMOS 2251 DEB now!
10-day predictions


NORAD ID: 35970
Int'l Code: 1993-036AVL
Perigee: 678.1 km
Apogee: 737.4 km
Inclination: 74.0 °
Period: 98.8 minutes
Semi major axis: 7078 km
RCS: 0.0106 m2 (small)
Launch date: June 16, 1993
Source: Commonwealth of Independent States (former USSR) (CIS)
Launch site: PLESETSK MISSILE AND SPACE COMPLEX (PKMTR)

Note: This is SATELLITE DEBRIS
Your satellite tracking list
Your tracking list is empty





NASA's NSSDC Master Catalog

Two Line Element Set (TLE):
1 35970U 93036AVL 17106.86255457 +.00000799 +00000-0 +17949-3 0  9990
2 35970 074.0430 176.9628 0041887 001.5915 358.5374 14.57700412404602
Source of the keplerian elements: AFSPC